Regional Weather Roundup
Issued by NWS

Home | Current Version | Previous Version | Text Only | Print | Product List | Glossary On
Versions: 1 2 3 4 5 6 7 8 9 10 11 12 13 14 15 16 17 18 19 20 21 22 23 24 25 26 27 28 29 30 31 32 33 34 35 36 37 38 39 40 41 42 43 44 45 46 47 48 49 50
000
ASUS43 KLSX 161307
RWRMO

WEATHER SUMMARY FOR MISSOURI
NATIONAL WEATHER SERVICE SPRINGFIELD MO
800 AM CDT WED AUG 16 2017

NOTE: "FAIR" INDICATES FEW OR NO CLOUDS BELOW 12,000 FEET WITH NO
       SIGNIFICANT WEATHER AND/OR OBSTRUCTIONS TO VISIBILITY.
       CURRENT SKY AND/OR WEATHER CONDITIONS ARE NOT AVAILABLE FOR
       CHILLICOTHE AND FARMINGTON.

MOZ001>031-035>038-043-044-053-054-161400-
...NORTHERN AND WESTERN MISSOURI...

CITY           SKY/WX    TMP DP  RH WIND       PRES   REMARKS
KANSAS CTY INT TSTM      73  72  96 S10       29.85S FOG
KANSAS C DTWN  TSTM      73  72  96 N8        29.84F
LEE`S SUMMIT   CLOUDY    71  70  96 NE7       29.87R
ST JOSEPH      CLOUDY    74  71  91 S12       29.83R
CHILLICOTHE      N/A     75  73  93 S8        29.88R
KIRKSVILLE     PTSUNNY   73  71  93 SE7       29.91R

$$
MOZ066>068-077>081-088>096-101>105-161400-
...SOUTHWEST MISSOURI...

CITY           SKY/WX    TMP DP  RH WIND       PRES   REMARKS
SPRINGFIELD    CLOUDY    73  72  96 S13       29.93R
JOPLIN         MOSUNNY   78  73  84 S12       29.89R
BRANSON        CLOUDY    72  72 100 SE6       29.95S

$$
MOZ032>034-039>042-045>050-055>058-069>072-161400-
...CENTRAL MISSOURI...

CITY           SKY/WX    TMP DP  RH WIND       PRES   REMARKS
COLUMBIA       CLOUDY    73  71  93 SE8       29.92R
JEFFERSON CITY PTSUNNY   74  73  97 SE5       29.91R
ROLLA          CLOUDY    74  74 100 SE7       29.95R FOG
SEDALIA        TSTM      73  73 100 CALM      29.92S
WHITEMAN AFB   PTSUNNY   72  72 100 S5        29.88F
WARRENSBURG    CLOUDY    70  68  94 CALM      29.88S
OSAGE BEACH    CLOUDY    70  69  97 S7        29.93R

$$
MOZ051-052-059>065-161400-
...EAST CENTRAL MISSOURI...

CITY           SKY/WX    TMP DP  RH WIND       PRES   REMARKS
ST LOUIS INTL  LGT RAIN  76  73  91 SE9       29.95R
SPIRIT OF STL  CLOUDY    75  74  96 CALM      29.93R
ST CHARLES     CLOUDY    75  74  96 SE7       29.93R

$$
MOZ072>076-082>087-097>100-106>115-161400-
...SOUTH CENTRAL AND SOUTHEAST MISSOURI...

CITY           SKY/WX    TMP DP  RH WIND       PRES   REMARKS
CAPE GIRARDEAU PTSUNNY   76  73  91 S6        29.97R
FARMINGTON     CLOUDY    73  72  96 S7        29.99R
POPLAR BLUFF   PTSUNNY   75  74  96 CALM      29.96R
WEST PLAINS    CLOUDY    75  73  93 S7        29.99R FOG

$$



USA.gov is the U.S. government's official web portal to all federal, state and local government web resources and services.